This is the latest recevied weather packets stored in our database for station/object DL6MAA-11. If no packets are shown the sender has not sent any weather packets the latest 10 day(s).
| Time | Temp. | Humidity | Pressure | Rain* | Wind** | Luminosity | Snow |
|---|---|---|---|---|---|---|---|
| 1777440736 | 8.33° C | 62% | 1016.3 hPa | 0 mm | - | 53 W/m² | - |
| 1777440439 | 8.33° C | 62% | 1016.3 hPa | 0 mm | - | 51 W/m² | - |
| 1777440143 | 8.33° C | 62% | 1016.3 hPa | 0 mm | - | 53 W/m² | - |
| 1777439852 | 8.33° C | 62% | 1016.3 hPa | 0 mm | - | 53 W/m² | - |
| 1777439543 | 8.33° C | 62% | 1016.1 hPa | 0 mm | - | 42 W/m² | - |
| 1777439249 | 8.33° C | 61% | 1016.1 hPa | 0 mm | - | 39 W/m² | - |
| 1777438950 | 8.33° C | 61% | 1016.1 hPa | 0 mm | - | 30 W/m² | - |
| 1777438641 | 8.33° C | 60% | 1015.9 hPa | 0 mm | - | 28 W/m² | - |
| 1777438346 | 8.33° C | 60% | 1015.9 hPa | 0 mm | - | 28 W/m² | - |
| 1777438031 | 8.33° C | 60% | 1015.9 hPa | 0 mm | - | 23 W/m² | - |
| 1777437739 | 8.33° C | 60% | 1015.6 hPa | 0 mm | - | 19 W/m² | - |
| 1777437447 | 8.33° C | 60% | 1015.6 hPa | 0 mm | - | 18 W/m² | - |
| 1777437149 | 8.33° C | 59% | 1015.6 hPa | 0 mm | - | 18 W/m² | - |
| 1777436850 | 8.33° C | 59% | 1015.6 hPa | 0 mm | - | 14 W/m² | - |
| 1777436536 | 8.33° C | 59% | 1015.6 hPa | 0 mm | - | 11 W/m² | - |
| 1777436240 | 8.33° C | 59% | 1015.6 hPa | 0 mm | - | 7 W/m² | - |
| 1777435941 | 8.33° C | 58% | 1015.3 hPa | 0 mm | - | 7 W/m² | - |
| 1777435648 | 8.89° C | 58% | 1015.3 hPa | 0 mm | - | 5 W/m² | - |
| 1777435354 | 8.89° C | 57% | 1015.3 hPa | 0 mm | - | 0 W/m² | - |
| 1777435037 | 8.89° C | 57% | 1015.1 hPa | 0 mm | - | 0 W/m² | - |
| 1777434743 | 8.89° C | 57% | 1015.1 hPa | 0 mm | - | 0 W/m² | - |
| 1777433836 | 8.89° C | 56% | 1014.9 hPa | 0 mm | - | 0 W/m² | - |
| 1777433232 | 8.89° C | 56% | 1015.7 hPa | 0 mm | - | 0 W/m² | - |
| 1777432954 | 8.89° C | 56% | 1015.7 hPa | 0 mm | - | 0 W/m² | - |
| 1777432635 | 9.44° C | 56% | 1015.7 hPa | 0 mm | - | 0 W/m² | - |
* Rain since midnight (hover to see other rain measurements)
** Current wind speed in m/s (hover to see current wind gust speed)